Location: Ellerstadt
(49.4644°N, 8.2615°E)
Time: 02:06:21
(UTC+00:00)

ISS - Pass Details

Date: 22 May 2021
Orbit: 417 x 422 km, 51.6° (Epoch: 15 June)

Event Time Altitude Azimuth Distance (km) Brightness Sun altitude
Rises 20:56:12 0° 280° (W) 2,367 0.8 -12.7°
Reaches altitude 10° 20:58:19 10° 284° (WNW) 1,503 -0.2 -12.9°
Maximum altitude 21:01:40 59° 5° (N) 492 -3.2 -13.2°
Drops below altitude 10° 21:05:00 10° 86° (E) 1,505 -1.2 -13.5°
Enters shadow 21:05:15 - 87° (E) 1,601 -1.1 -13.5°
